sat.trackr.live / text

‹ back to catalog

GEESAT-4 08

NORAD 65126 · 2025-170H

PAYLOAD ACTIVE UNKNOWN

§ Identity

Operator
Country
PRC
Launch date
2025-08-08
Launch site
YSLA
Launch vehicle
Mass (kg)
RCS (m²)

External: N2YO · Heavens-Above · Gunter

§ Orbital elements

Epoch: 2026-05-25T04:44:30.688224Z

Period
97.16 min
Inclination
49.9657°
Eccentricity
0.0021324
Mean motion
14.82075800 rev/d
Perigee alt
607.9 km
Apogee alt
637.7 km
Semi-major
7,000.9 km
B*
1.8574e-4
RAAN
233.7132°
Arg perigee
252.8801°
Mean anomaly
106.9801°
Rev number
4,364

§ Raw data

GEESAT-4 081 65126U 25170H   26145.19757741  .00001270  00000+0  18574-3 0  99912 65126  49.9657 233.7132 0021324 252.8801 106.9801 14.82075800 43648

JSON: /api/v1/satellites/65126 · /tle

For live sub-satellite position, see the globe view (requires WebGL).

§ Visibility from observer

Set your observer location to see the next 7 days of passes ≥ 10°. The values pass through the URL so the page stays shareable.

No JS? Fill the form by hand. The geolocation button needs JavaScript.